Skip Page Navigation
NASA JPL Caltech
NASA Logo - Jet Propulsion Laboratory + View the NASA Portal
+ Center for Near-Earth Object Studies
JPL Home Earth Solar System Stars & Galaxies Technology
JPL Solar System Dynamics
BODIES ORBITS EPHEMERIDES TOOLS PHYSICAL DATA DISCOVERY FAQ SITE MAP
IMPORTANT: The SSD Announcement email list is now available. Major changes are coming in the near future, including possible hostname and/or URL changes. To be notified of such changes, subscribe to this email list.

Please visit this page for more details.


JPL Small-Body Database Browser
Search: [ help ]  
105234 (2000 PB13)
Classification: Main-belt Asteroid          SPK-ID: 2105234
Ephemeris | Orbit Diagram | Orbital Elements | Mission Design | Physical Parameters | Discovery Circumstances ]

[ show orbit diagram ]
Orbital Elements at Epoch 2459000.5 (2020-May-31.0) TDB
Reference: JPL 20 (heliocentric ecliptic J2000)
 Element Value Uncertainty (1-sigma)   Units 
e .2469384584926079 5.9428e-08  
a 2.221598429365018 1.6488e-08 au
q 1.673000337828021 1.3088e-07 au
i 24.10595384930829 9.5466e-06 deg
node 287.6321767364989 1.6755e-05 deg
peri 98.88079363171022 3.1832e-05 deg
M 341.3870337711342 3.609e-05 deg
tp 2459063.033085055013
(2020-Aug-01.53308506)
0.00012183 TDB
period 1209.474639506532
3.31
1.3464e-05
3.686e-08
d
yr
n .2976498954512025 3.3136e-09 deg/d
Q 2.770196520902015 2.0559e-08 au
  Orbit Determination Parameters
   # obs. used (total)      522  
   data-arc span      7850 days (21.49 yr)  
   first obs. used      1997-12-29  
   last obs. used      2019-06-27  
   planetary ephem.      DE431  
   SB-pert. ephem.      SB431-N16  
   condition code      0  
   norm. resid. RMS      .54246  
   source      ORB  
   producer      Otto Matic  
   solution date      2020-Feb-24 02:19:12  

Additional Information
 Earth MOID = .843104 au 
 Jupiter MOID = 2.9208 au 
 T_jup = 3.498 
[ show covariance matrix ]

Ephemeris | Orbit Diagram | Orbital Elements | Mission Design | Physical Parameters | Discovery Circumstances ]

Physical Parameter Table
Parameter Symbol Value Units Sigma Reference Notes
absolute magnitude H 14.7   n/a MPO436496  
diameter diameter 2.789 km 0.492 urn:nasa:pds:neowise_diameters_albedos::2.0[mainbelt] (http://adsabs.harvard.edu/abs/2012ApJ...759L...8M)  
geometric albedo albedo 0.360   0.132 urn:nasa:pds:neowise_diameters_albedos::2.0[mainbelt] (http://adsabs.harvard.edu/abs/2012ApJ...759L...8M)  

105234 (2000 PB13)          Discovered 2000-Aug-10 by LINEAR at Socorro
Reference: 20051019/Numbers.arcLast Updated: 2005-10-26

Alternate Designations
 2000 PB13 = 1997 YE9 
Ephemeris | Orbit Diagram | Orbital Elements | Mission Design | Physical Parameters | Discovery Circumstances ]
ABOUT SSD CREDITS/AWARDS PRIVACY/COPYRIGHT GLOSSARY LINKS
FirstGov 2020-Apr-10 06:56 UT
(server date/time)  
NASA Home Page
Site Manager:   Ryan S. Park
Webmaster  Alan B. Chamberlin